Regional Weather Roundup
Issued by NWS

Home | Current Version | Previous Version | Text Only | Print | Product List | Glossary On
Versions: 1 2 3 4 5 6 7 8 9 10 11 12 13 14 15 16 17 18 19 20 21 22 23 24 25 26 27 28 29 30 31 32 33 34 35 36 37 38 39 40 41 42 43 44 45 46 47 48 49 50
000
ASHW40 PHFO 200410
RWRHI

WEATHER ROUNDUP FOR HAWAII
NATIONAL WEATHER SERVICE HONOLULU HI
600 PM HST FRI SEP 19 2014

THIS IS AN AUTOMATED REPORT THAT HAS NOT BEEN QUALITY CONTROLLED.

NOTE..."FAIR" INDICATES FEW OR NO CLOUDS BELOW 12,000 FEET WITH NO
SIGNIFICANT WEATHER AND/OR OBSTRUCTIONS TO VISIBILITY.

* - THESE SITES REPORT LIMITED FIELDS

HIZ001>004-200500-
KAUAI-NIIHAU-

CITY           SKY/WX    TMP DP  RH WIND       PRES   REMARKS
LIHUE APT      CLOUDY    78  71  79 NW10      29.92R
PORT ALLEN*    NOT AVBL
POIPU*         NOT AVBL
PRINCEVILLE*   NOT AVBL
KOKOLE POINT*  NOT AVBL
MOLOAA DAIRY*  NOT AVBL
WAIMEA HTS*    NOT AVBL
PUU OPAE*      NOT AVBL
PUU LUA*       NOT AVBL
MAKAHA RIDGE*  NOT AVBL
$$

HIZ005>011-200500-
OAHU-

CITY           SKY/WX    TMP DP  RH WIND       PRES   REMARKS
HONOLULU       PTCLDY    84  70  62 S7        29.89R
KALAELOA       CLOUDY    83  71  67 W7        29.90R
KANEOHE MCB    CLOUDY    79  74  85 SW6       29.90R
WHEELER FIELD  DRIZZLE   79  71  77 N6        29.91R
BELLOWS*       NOT AVBL
KAHUKU*        NOT AVBL
WHEELER*       NOT AVBL
WAIANAE HARBOR NOT AVBL
DILLINGHAM*      N/A     84  73  70 CALM        N/A  HX  91
KAHUKU TRN*      N/A     81  73  78 E5G12       N/A
KAWAILOA*      NOT AVBL
KII*             N/A     82  73  74 E8          N/A
MAKUA RANGE*     N/A     84  70  61 NE6         N/A
OAHU FOREST NW NOT AVBL
SCHOFIELD BRK*   N/A     79  68  69 MISG        N/A
SCHOFIELD S*   NOT AVBL
WAIANAE VLY*   NOT AVBL
KUAOKALA*      NOT AVBL
HONOULIUULI*   NOT AVBL
MOKUOLOE IS*     N/A    N/A N/A N/A MISG        N/A
PALEHUA*       NOT AVBL
WAIAWA PHB*    NOT AVBL
$$

HIZ012>013-200500-
MOLOKAI-

CITY           SKY/WX    TMP DP  RH WIND       PRES   REMARKS
MOLOKAI AIRPT  PTCLDY    81  74  79 S6        29.91R
KALAUPAPA      NOT AVBL
MAKAPULAPAI*   NOT AVBL
MOLOKAI 1*     NOT AVBL
PUU ALII*      NOT AVBL
$$

HIZ016-200500-
KAHOOLAWE-

CITY           SKY/WX    TMP DP  RH WIND       PRES   REMARKS
KAHOOLAWE*     NOT AVBL
HAKIOAWA*      NOT AVBL
HONOKANAIA*      N/A     82  72  71 E10G18    29.91R
KANELOA*         N/A     82  73  74 E9G15     29.13R
KEALIALALO*    NOT AVBL
LUA MAKIKA*    NOT AVBL
$$

HIZ014>015-200500-
LANAI-

CITY           SKY/WX    TMP DP  RH WIND       PRES   REMARKS
LANAI CITY     CLOUDY    79  71  76 VRB5      29.97R
LANAI 1*       NOT AVBL
$$

HIZ017>028-200500-
MAUI-

CITY           SKY/WX    TMP DP  RH WIND       PRES   REMARKS
KAHULUI        PTCLDY    83  72  69 NE9       29.89R
KAPALUA-W MAUI PTCLDY    84  70  61 VRB7      29.90R
HANA AIRPORT   MOCLDY    81  72  74 CALM      29.93S
HANA*          NOT AVBL
HALEAKALA SUMM   N/A     55  23  28 SW5G16      N/A
MAALAEA BAY*   NOT AVBL
HALEAKALA*     NOT AVBL
KAUPO GAP*     NOT AVBL
KULA 1*          N/A     62  57  83 NW2G8       N/A
$$

HIZ023>026-200500-
BIG ISLAND OF HAWAII COAST AND LOWER SLOPES-

CITY           SKY/WX    TMP DP  RH WIND       PRES   REMARKS
KAILUA KONA    PTCLDY    83  72  69 W7        29.89R
HILO           CLOUDY    82  73  74 SE5       29.90R
HONOKAA*       NOT AVBL
KAWAIHAE MWT*  NOT AVBL
KAWAIHAE*        N/A     82 N/A N/A S6          N/A
SOUTH POINT*   NOT AVBL
UPOLU AIRPORT* NOT AVBL
KAMUELA*       CLOUDY    72  68  88 SW7       30.03S
HAKALAU*         N/A     60  59  95 SE3         N/A
KALOKO-HONOKO* NOT AVBL
PALI 2*          N/A     70  70 100 SE8         N/A
KEALAKOMO*       N/A     82  73  74 E9          N/A
KAUPULEHU*     NOT AVBL
KAPAPALA*        N/A     72  69  92 CALM        N/A
LOWER KAHUKU*  NOT AVBL
PUHE CS*       NOT AVBL
PUHO CS*       NOT AVBL
PTA KEAMUKU*     N/A     70  64  83 W8          N/A
WAIKOLOA*      NOT AVBL
$$

HIZ027>028-200500-
BIG ISLAND OF HAWAII INTERIOR AND SUMMMITS-

CITY           SKY/WX    TMP DP  RH WIND       PRES   REMARKS
BRADSHAW FIELD MOCLDY    63  60  89 W7        30.28R
MK VISITOR CEN NOT AVBL
MAUNA KEA*       N/A     43  36  75 W2          N/A
MAUNA LOA*     NOT AVBL
MAUNA LOA 1*   NOT AVBL
PTA KIPUKA*      N/A     63  63 100 NW3         N/A
PTA RANGE 17*    N/A     63  63 100 NW7         N/A
PTA WEST*        N/A     66  64  94 NW7         N/A
NENE CABIN*    NOT AVBL
AHUMOA*        NOT AVBL
PTA PORTABLE*  NOT AVBL
PUU MALI*      NOT AVBL
$$

HIC003-200500-
NORTHWEST ISLANDS-

CITY           SKY/WX    TMP DP  RH WIND       PRES   REMARKS
MIDWAY ISLAND  SUNNY     86  72  62 VRB6      30.06S HX  92
MIDWAY NOS*    NOT AVBL
FRENCH FRIGATE NOT AVBL
$$

PHZ110>124-180-200500-
BUOY REPORTS

STATION/POSITION TIME  TEMP    WIND        PRES    WAVE   SWELL
                       AIR SEA DIR/SP/G            HT/PER HT/DIR
                 (UTC) (F)     (DEG/KT/KT) (MB)    (FT/S) (FT/D)
BUOY 51001       NOT AVBL
BUOY 51101       NOT AVBL
BUOY 51100       0400   80 83   80/  4/  6 1013.3R
BUOY 51003       0300   82 86   60/  2/  4 1011.7R   5/11   5
BUOY 51004       0302   81 81   70/ 14/ 16 1011.4    5/10   5/ 70
BARBERS PT BUOY  NOT AVBL
WAIMEA BAY BUOY  0400      83                N/A     4/ 9   2/360
KAILUA BAY BUOY  0400      83                N/A     4/14   2/ 80
LANAI BUOY       NOT AVBL
BARBERS PT 2     0400      84                N/A     3/12   2/170
PAUWELA MAUI     0400      82                N/A     5/ 9   2/ 70
HILO             0400      83                N/A     5/12   2/110
KANEOHE BAY BUOY NOT AVBL
HANALEI KAUAI    NOT AVBL
KAHULUI HARBOR   0400   82 85   30/  6/  8 1012.0R
HONOLULU HARBOR  0400   82     240/  4/  6 1012.6R
KILO NALU        NOT AVBL
HILO HARBOR      0400   81     280/  3/  5 1012.2R
MOKUOLOE         0400   77 86  230/  2/  3 1012.7S
NAWILIWILI       0400      84                N/A
WHOTS BUOY       NOT AVBL
BUOY 51028       NOT AVBL
$$

......................KEY........................................
  SKY/WX - SKY CONDITIONS/PRESENT WEATHER
  TMP    - TEMPERATURE IN FAHRENHEIT
  DWPT   - DEWPOINT IN FAHRENHEIT
  RH     - RELATIVE HUMIDITY IN PERCENT
  WIND   - DIRECTION AND SPEED /MPH FOR ISLANDS...KTS FOR BUOYS/
  PRES   - MEAN SEA LEVEL PRESSURE IN INCHES OF HG
  VSB    - VISIBILITY IN MILES
  HX     - HEAT INDEX
  WCI    - WIND CHILL INDEX
  VRB    - VARIABLE WIND DIRECTION
  N/A    - NOT AVAILABLE



USA.gov is the U.S. government's official web portal to all federal, state and local government web resources and services.